[[{"header":{"parameterUnit":"m.s-1","parameterCategory":1,"la1":30.2991,"la2":30.254,"lo1":-89.0895,"lo2":-89.0444,"dy":0.0017,"dx":0.0017,"nx":28,"ny":28,"refTime":"2024-04-29T09:00:00:Z","depth":0,"parameterNumber":2,"parameterNumberName":"U-component_of_WINDS"},"data":[0,0,0,0,0,0,0,0,0,0,0,0,0,0,0,0,0,0,0,0,0,0,0,0,0,0,0,0,0,0,0,0,0,0,0,0,0,0,0,0,0,0,0,0,0,0,0,0,0,0,0,0,0,0,0,0,0,0,-6.8418,-6.842,0,-6.8572,-6.8574,-6.8575,-6.8549,-6.8547,-6.8544,-6.8541,-6.8697,-6.8704,-6.871,0,0,0,0,0,0,0,0,0,0,0,0,0,-6.81,-6.8106,-6.8418,-6.842,-6.8422,-6.8572,-6.8574,-6.8576,-6.855,-6.8547,-6.8543,-6.854,-6.8695,-6.8703,-6.8711,0,0,0,0,0,0,0,0,0,0,0,0,0,-6.8245,-6.8108,-6.8417,-6.8427,-6.8429,-6.8571,-6.8574,-6.8576,-6.8551,-6.8546,-6.8542,-6.8539,-6.8692,-6.8702,-6.8712,-6.8853,0,0,-6.8742,-6.8747,0,0,0,0,0,0,0,0,-6.8236,-6.8256,-6.8424,-6.8426,-6.8429,-6.8537,-6.8519,-6.8669,-6.8552,-6.8504,-6.8541,-6.8537,-6.8647,-6.8661,-6.8698,-6.8861,-6.8867,-6.8743,-6.8749,-6.8753,-6.8756,0,0,0,0,0,0,0,-6.8226,-6.8249,-6.8479,-6.8426,-6.843,-6.8423,-6.8439,-6.8547,-6.8596,-6.8508,-6.8507,-6.8525,-6.8648,-6.8689,-6.8702,-6.887,-6.8743,-6.8752,-6.8758,-6.8762,-6.9156,-6.916,0,0,0,0,0,0,-6.8214,-6.8241,-6.8474,-6.8483,-6.8321,-6.8432,-6.845,-6.8507,-6.8595,-6.8605,-6.8529,-6.8524,-6.8674,-6.869,-6.8707,-6.8877,-6.8753,-6.8763,-6.8768,-6.9151,-6.9157,-6.9162,0,0,0,0,0,0,-6.8207,-6.8235,-6.8467,-6.8362,-6.8391,-6.8442,-6.8506,-6.8512,-6.8552,-6.8611,-6.8619,-6.8561,-6.8671,-6.8693,-6.8817,-6.8882,-6.8767,-6.8776,-6.9146,-6.9153,-6.9159,-6.9219,0,0,0,0,0,0,-6.8198,-6.8233,-6.8287,-6.8363,-6.8397,-6.8575,-6.851,-6.8518,-6.857,-6.8565,-6.8643,-6.8652,-6.867,-6.8803,-6.8827,-6.8894,-6.8784,-6.914,-6.9149,-6.9157,-6.9211,-6.9227,-6.924,0,0,0,0,0,-6.8187,-6.8297,-6.829,-6.8318,-6.8466,-6.8579,-6.8598,-6.8616,-6.8575,-6.863,-6.8668,-6.865,-6.8872,-6.8815,-6.8843,-6.8913,-6.9136,-6.9147,-6.9156,-6.9205,-6.9224,-6.924,0,0,0,0,0,0,-6.8226,-6.8307,-6.83,-6.8439,-6.8502,-6.8575,-6.8644,-6.8636,-6.8712,-6.8704,-6.8723,-6.8741,-6.8867,-6.8903,-6.8839,-6.9055,-6.8998,-6.9014,-6.9026,-6.9044,-6.9058,-6.9045,-6.8792,0,0,0,0,0,-6.8251,-6.8337,-6.8403,-6.8519,-6.8552,-6.8593,-6.8643,-6.8652,-6.8718,-6.8744,-6.8791,-6.8856,-6.894,-6.8995,-6.9076,-6.9218,-6.9234,-6.928,-6.9295,-6.9306,-6.9319,-6.9396,-6.9416,-6.9195,-6.9195,-6.9195,0,0,-6.8303,-6.8358,-6.8411,-6.8529,-6.8579,-6.8666,-6.8615,-6.871,-6.8775,-6.8759,-6.8878,-6.8915,-6.8989,-6.9122,-6.9184,-6.9157,-6.9384,-6.9319,-6.9328,-6.9334,-6.9408,-6.9429,-6.9448,-6.9202,-6.92,-6.9199,0,0,-6.8441,-6.8493,-6.8594,-6.8646,-6.8724,-6.8751,-6.8775,-6.885,-6.8874,-6.8995,-6.8984,-6.9062,-6.9207,-6.9259,-6.9305,-6.9466,-6.9452,-6.9492,-6.9566,-6.9641,-6.9658,-6.9674,-6.9729,-6.9748,-6.9506,-6.9506,-6.9506,0,-6.8495,-6.8627,-6.8647,-6.8744,-6.8795,-6.8786,-6.8889,-6.8938,-6.9038,-6.9073,-6.9043,-6.9225,-6.9274,-6.9419,-6.9458,-6.9497,-6.9524,-6.9481,-6.9654,-6.967,-6.9685,-6.9737,-6.9758,-6.951,-6.9509,-6.9509,-6.9509,0,-6.8689,-6.8781,-6.8854,-6.8951,-6.9011,-6.911,-6.9144,-6.9203,-6.9208,-6.9238,-6.9361,-6.942,-6.9512,-6.9549,-6.9554,-6.9695,-6.9675,-6.965,-6.9592,-6.971,-6.9759,-6.978,-6.9516,-6.9514,-6.9513,-6.9512,0,0,-6.8853,-6.8961,-6.8987,-6.9031,-6.9117,-6.9188,-6.9287,-6.9378,-6.9427,-6.9497,-6.9579,-6.9704,-6.968,-6.9732,-6.9744,-6.981,-6.9931,-6.9776,-6.9778,-6.98,-7.0088,-7.0104,-7.0127,-6.9925,-6.9929,-6.9932,-7.0081,0,-6.8997,-6.9171,-6.9193,-6.9347,-6.9432,-6.9426,-6.9512,-6.9574,-6.9605,-6.9681,-6.9717,-6.9803,-6.9767,-6.9799,-6.9864,-6.9903,-6.9989,-6.9893,-6.9999,-7.0002,-6.9977,-7.0154,-7.0171,-7.0308,-7.0101,-7.0104,-7.0107,0,-6.9187,-6.9263,-6.9426,-6.95,-6.9536,-6.9613,-6.9698,-6.9772,-6.9842,-6.9861,-6.992,-6.9923,-7.0025,-6.9967,-7.0107,-7.0041,-7.0087,-7.0113,-7.0118,-7.0126,-7.0058,-7.0162,-7.0353,-7.0372,-7.0138,-7.0135,-7.0133,0,-6.9287,-6.943,-6.9545,-6.9584,-6.9674,-6.9728,-6.9768,-6.9834,-6.9888,-6.9963,-6.9997,-7.0084,-7.013,-7.0196,-7.0223,-7.0179,-7.0361,-7.0305,-7.0377,-7.0376,-7.0412,-7.0409,-7.0609,-7.0448,-7.0448,-7.0447,-7.0447,0,-6.9443,-6.9542,-6.9591,-6.9662,-6.9773,-6.9798,-6.9907,-6.9945,-7.0005,-7.0082,-7.0084,-7.0157,-7.0189,-7.0267,-7.0289,-7.04,-7.0422,-7.0439,-7.0443,-7.0437,-7.0434,-7.0463,-7.0453,-7.0453,-7.0452,-7.045,-7.045,0,-6.9571,-6.9608,-6.9733,-6.9809,-6.9831,-6.9909,-6.9974,-7.0042,-7.0074,-7.0172,-7.0197,-7.0247,-7.0339,-7.0373,-7.0486,-7.05,-7.0628,-7.0626,-7.0604,-7.0604,-7.0673,-7.0664,-7.0896,-7.0927,-7.0749,-7.075,-7.0752,0,-6.9666,-6.9742,-6.9827,-6.9879,-6.9921,-7.0006,-7.0061,-7.0089,-7.0146,-7.0233,-7.029,-7.0382,-7.0457,-7.0604,-7.065,-7.0736,-7.0734,-7.0809,-7.0746,-7.0737,-7.0731,-7.0725,-7.0731,-7.0819,-7.0821,-7.0822,-7.0824,0,-6.9831,-6.9846,-6.9925,-7.0011,-7.0076,-7.0145,-7.0212,-7.0255,-7.0294,-7.0358,-7.0452,-7.051,-7.0625,-7.0715,-7.0804,-7.0845,-7.084,-7.0844,-7.0864,-7.0857,-7.084,-7.0847,-7.0632,-7.0837,-7.0836,-7.0835,-7.0834,-7.0834,-6.9943,-7.001,-7.008,-7.0168,-7.0222,-7.0285,-7.0352,-7.0394,-7.0473,-7.0568,-7.0581,-7.0682,-7.0751,-7.0869,-7.0915,-7.0994,-7.0973,-7.1004,-7.1011,-7.1017,-7.102,-7.0831,-7.101,-7.101,-7.101,-7.1009,-7.1009,0,-7.0105,-7.015,-7.0231,-7.0325,-7.0394,-7.0387,-7.0461,-7.0519,-7.0607,-7.0673,-7.0746,-7.0854,-7.0943,-7.0997,-7.1086,-7.1138,-7.1139,-7.116,-7.1155,-7.1164,-7.1035,-7.1006,-7.1159,-7.1159,-7.1159,-7.1159,-7.1159,-7.1159,-7.0197,-7.0309,-7.0333,-7.0472,-7.0517,-7.0615,-7.0658,-7.0716,-7.0768,-7.0889,-7.0962,-7.0997,-7.1058,-7.1152,-7.1232,-7.1246,-7.1277,-7.13,-7.1312,-7.1189,-7.1173,-7.1158,-7.1132,-7.1308,-7.1308,-7.1434,-7.1435,-7.1436]},{"header":{"parameterUnit":"m.s-1","parameterCategory":1,"la1":30.2991,"la2":30.254,"lo1":-89.0895,"lo2":-89.0444,"dy":0.0017,"dx":0.0017,"nx":28,"ny":28,"refTime":"2024-04-29T09:00:00:Z","depth":0,"parameterNumber":3,"parameterNumberName":"V-component_of_WINDS"},"data":[0,0,0,0,0,0,0,0,0,0,0,0,0,0,0,0,0,0,0,0,0,0,0,0,0,0,0,0,0,0,0,0,0,0,0,0,0,0,0,0,0,0,0,0,0,0,0,0,0,0,0,0,0,0,0,0,0,0,5.2212,5.2212,0,5.2233,5.2234,5.2234,5.2152,5.215,5.2147,5.2145,5.2164,5.2167,5.2169,0,0,0,0,0,0,0,0,0,0,0,0,0,5.2098,5.21,5.2212,5.2212,5.2212,5.2233,5.2234,5.2234,5.2153,5.215,5.2147,5.2144,5.2163,5.2166,5.217,0,0,0,0,0,0,0,0,0,0,0,0,0,5.2136,5.2101,5.2212,5.2174,5.2171,5.2233,5.2234,5.2234,5.2153,5.215,5.2146,5.2143,5.2162,5.2166,5.217,5.2268,0,0,5.2183,5.2184,0,0,0,0,0,0,0,0,5.2134,5.214,5.218,5.2177,5.2174,5.2187,5.22,5.2245,5.2154,5.216,5.2145,5.2141,5.2174,5.2177,5.2189,5.2269,5.227,5.2183,5.2186,5.2187,5.2188,0,0,0,0,0,0,0,5.2131,5.2139,5.222,5.218,5.2177,5.2156,5.2157,5.2208,5.2187,5.2159,5.2153,5.2157,5.2172,5.2185,5.2189,5.227,5.2183,5.2187,5.2189,5.2191,5.2432,5.2436,0,0,0,0,0,0,5.2134,5.2137,5.2219,5.2221,5.2145,5.2161,5.2162,5.2186,5.2186,5.2183,5.216,5.2153,5.218,5.2184,5.2189,5.2304,5.2187,5.2191,5.2194,5.2428,5.2433,5.2437,0,0,0,0,0,0,5.2132,5.2142,5.2219,5.2178,5.2186,5.2167,5.2194,5.2188,5.2202,5.2187,5.2183,5.2178,5.2177,5.2183,5.2249,5.2304,5.2193,5.2197,5.2424,5.243,5.2435,5.2535,0,0,0,0,0,0,5.2129,5.2142,5.2179,5.2179,5.2188,5.2279,5.2197,5.2191,5.2209,5.22,5.2203,5.2199,5.2175,5.2244,5.2254,5.2307,5.22,5.2419,5.2426,5.2433,5.2527,5.2543,5.2558,0,0,0,0,0,5.2125,5.2205,5.2182,5.2192,5.2235,5.2283,5.2288,5.2259,5.2214,5.2251,5.2242,5.2199,5.2297,5.2251,5.2262,5.2317,5.2415,5.2424,5.2433,5.252,5.254,5.2557,0,0,0,0,0,0,5.2211,5.2205,5.2178,5.2261,5.2273,5.2269,5.2315,5.2281,5.2306,5.2296,5.2258,5.2259,5.2332,5.2331,5.2281,5.2413,5.2348,5.2359,5.241,5.243,5.2445,5.2443,5.2203,0,0,0,0,0,5.224,5.228,5.2272,5.2346,5.2354,5.2334,5.2353,5.233,5.2341,5.2345,5.2341,5.2352,5.2385,5.2407,5.2437,5.2527,5.2526,5.257,5.2586,5.2599,5.2609,5.2656,5.2676,5.2467,5.2466,5.2466,0,0,5.2299,5.23,5.2328,5.2363,5.237,5.2412,5.2338,5.2385,5.2416,5.2352,5.2414,5.2412,5.2422,5.2501,5.2535,5.2502,5.2667,5.261,5.2621,5.2623,5.2668,5.2687,5.2705,5.2473,5.2471,5.2471,0,0,5.2428,5.2434,5.2496,5.2505,5.2517,5.2504,5.2519,5.2521,5.2517,5.2579,5.2533,5.2568,5.2626,5.2635,5.2647,5.2783,5.2745,5.2794,5.2875,5.2922,5.2938,5.2953,5.3001,5.3019,5.2804,5.2804,5.2805,0,5.2499,5.2562,5.2532,5.2583,5.26,5.2546,5.2609,5.2619,5.264,5.2652,5.2616,5.2688,5.2691,5.2771,5.2804,5.2816,5.2832,5.2793,5.2939,5.2953,5.2966,5.3011,5.303,5.281,5.281,5.2809,5.2808,0,5.2649,5.2694,5.2743,5.2766,5.2788,5.2845,5.2823,5.285,5.2826,5.2816,5.2881,5.2883,5.2912,5.293,5.2906,5.3007,5.2986,5.2945,5.2879,5.2992,5.3034,5.3051,5.2819,5.2817,5.2815,5.2813,0,0,5.2831,5.2839,5.2857,5.2868,5.2878,5.2911,5.2966,5.2996,5.302,5.3036,5.3081,5.3132,5.3094,5.3109,5.3085,5.3127,5.3235,5.308,5.308,5.3108,5.3346,5.3377,5.3397,5.321,5.3213,5.3216,5.3345,0,5.2957,5.3052,5.3028,5.3121,5.3162,5.3113,5.316,5.3172,5.3165,5.3198,5.3189,5.3226,5.3174,5.3182,5.3221,5.3213,5.3282,5.3204,5.325,5.3252,5.3248,5.3419,5.3451,5.3574,5.3362,5.3364,5.3366,0,5.3117,5.3143,5.3241,5.3246,5.3262,5.3306,5.3332,5.3365,5.3377,5.3369,5.3386,5.3355,5.3408,5.3344,5.3417,5.3364,5.3382,5.3381,5.3385,5.3387,5.3315,5.3425,5.3612,5.363,5.3392,5.339,5.3388,0,5.324,5.3298,5.3365,5.3375,5.3383,5.3415,5.3419,5.3428,5.3448,5.3471,5.3484,5.3513,5.3528,5.3551,5.3528,5.3483,5.3605,5.3538,5.3599,5.36,5.3626,5.3624,5.3817,5.3639,5.3639,5.3638,5.3638,0,5.3383,5.3445,5.342,5.3461,5.3529,5.3501,5.3569,5.3567,5.3576,5.3615,5.3574,5.3612,5.358,5.3615,5.3598,5.3661,5.3668,5.3663,5.3657,5.3666,5.3667,5.3676,5.3667,5.3643,5.3642,5.3641,5.364,0,5.353,5.3516,5.3585,5.3588,5.3591,5.3641,5.3642,5.368,5.3671,5.3721,5.3732,5.3717,5.3756,5.3737,5.3776,5.3765,5.3846,5.383,5.3843,5.3838,5.39,5.3894,5.4105,5.4131,5.3937,5.3939,5.394,0,5.3623,5.367,5.3678,5.3703,5.3711,5.375,5.3771,5.3745,5.3769,5.3787,5.3823,5.3859,5.3886,5.395,5.3943,5.3973,5.3957,5.4028,5.3961,5.3968,5.3957,5.3954,5.3959,5.4041,5.4044,5.4045,5.4047,0,5.3788,5.3779,5.3812,5.3843,5.387,5.3893,5.3912,5.3934,5.3909,5.3937,5.3978,5.3999,5.4041,5.4077,5.4104,5.4107,5.4073,5.4069,5.4084,5.4093,5.4099,5.4096,5.3879,5.4064,5.4062,5.4061,5.406,5.4059,5.391,5.395,5.3963,5.4001,5.4013,5.4033,5.4068,5.4065,5.4099,5.4132,5.4114,5.4161,5.4173,5.4206,5.4214,5.425,5.4222,5.4244,5.425,5.4256,5.4264,5.4094,5.4255,5.4255,5.4254,5.4254,5.4253,0,5.4072,5.4079,5.4115,5.4144,5.4174,5.4142,5.4162,5.4189,5.4231,5.4246,5.4274,5.4321,5.4356,5.4352,5.4384,5.4414,5.4399,5.4423,5.442,5.4421,5.4288,5.4271,5.4434,5.4434,5.4434,5.4434,5.4434,5.4434,5.4161,5.4227,5.422,5.4291,5.4297,5.4344,5.4358,5.4376,5.4387,5.4442,5.4471,5.4469,5.4477,5.4509,5.454,5.4538,5.4551,5.4581,5.4573,5.4448,5.443,5.4413,5.4397,5.4584,5.4585,5.4703,5.4704,5.4705]}]]